Regional Weather Roundup
Issued by NWS

Home | Current Version | Previous Version | Text Only | Print | Product List | Glossary Off
Versions: 1 2 3 4 5 6 7 8 9 10 11 12 13 14 15 16 17 18 19 20 21 22 23 24 25 26 27 28 29 30 31 32 33 34 35 36 37 38 39 40 41 42 43 44 45 46 47 48 49 50

377
ASUS43 KLMK 222102
RWRKY
KENTUCKY REGIONAL WEATHER ROUNDUP
NATIONAL WEATHER SERVICE LOUISVILLE KY
500 PM EDT FRI SEP 22 2017

NOTE "FAIR" INDICATES FEW OR NO CLOUDS BELOW 12,000 FEET
WITH NO SIGNIFICANT WEATHER AND/OR OBSTRUCTIONS TO VISIBILITY.

KYZ001>023-026-027-061>063-070>075-222200-
WESTERN AND SOUTH CENTRAL KENTUCKY

CITY           SKY/WX    TMP DP  RH WIND       PRES   REMARKS
PADUCAH        SUNNY     91  64  40 E5        29.99F HX  92
HENDERSON      PTSUNNY   91  67  44 E8        30.01F HX  94
OWENSBORO      SUNNY     91  67  44 NE7       30.01F HX  94
HOPKINSVILLE   NOT AVBL
BOWLING GREEN  SUNNY     88  67  49 E6        30.02F HX  91
GLASGOW        SUNNY     88  66  47 E7        30.03F HX  90
$$

KYZ024-025-028>034-038-045-046-053-222200-
NORTH CENTRAL KENTUCKY

CITY           SKY/WX    TMP DP  RH WIND       PRES   REMARKS
LOUISVILLE/SDF MOSUNNY   91  66  43 SE8       30.02F HX  93
LOUISVILLE/LOU SUNNY     90  66  45 NE8       30.03F HX  92
FORT KNOX      MOSUNNY   85  67  54 N6        30.03F
$$

KYZ035>037-039>044-047>052-055>060-089>105-222200-
NORTHEAST KENTUCKY

CITY           SKY/WX    TMP DP  RH WIND       PRES   REMARKS
LEXINGTON      MOSUNNY   87  67  51 NE6       30.06F HX  90
COVINGTON      PTSUNNY   88  68  51 S3        30.05F HX  91
FRANKFORT      SUNNY     89  62  40 E8        30.04F
$$

KYZ054-064>069-076>088-106>120-222200-
SOUTHEAST KENTUCKY

CITY           SKY/WX    TMP DP  RH WIND       PRES   REMARKS
JACKSON        MOSUNNY   82  64  54 VRB3      30.08F
LONDON         MOSUNNY   84  64  50 NE5       30.06F
SOMERSET       NOT AVBL
MIDDLESBORO    MOSUNNY   87  64  46 NW6       30.05F
MONTICELLO     CLEAR     85  66  53 CALM      30.06F
$$





USA.gov is the U.S. government's official web portal to all federal, state and local government web resources and services.